TAP55 LPPT-LIRF

Flight info

Callsign TAP55
Flight time 2h 16m
Altitude 40000
Route ORVED DCT UREDI N870 PONEN DCT SEROX DCT VILAR DCT KARES DCT BISES DCT BCN/N0465F390 DCT DIPES/N0465F400 N725 TOSNU/N0466F410 DCT LAPIT DCT OSPOK DCT NOLVI DCT ORKUM/N0463F400 DCT ELSAG DCT ALG DCT ROMPO DCT RUXOP DCT BATOX DCT TINTO L5 VALMA
Aircraft A343/H-SDE2E3FGHIJ4J5M1RWXY/LB1D1

Departure

Time 2026-05-06 13:16
Airport Lisbon Humberto Delgado Airport (LPPT)

Arrival

Time 2026-05-06 15:32
Airport Rome–Fiumicino Leonardo da Vinci International Airport (LIRF)
Time Latitude Longitude Altitude Speed Heading
2026-05-06 12:55 38.77489 -9.13168 363 ft 0 kts 78°
2026-05-06 13:02 38.77486 -9.13185 361 ft 4 kts 78°
2026-05-06 13:02 38.77480 -9.13219 362 ft 4 kts 81°
2026-05-06 13:02 38.77479 -9.13253 363 ft 4 kts 97°
2026-05-06 13:02 38.77482 -9.13275 361 ft 4 kts 115°
2026-05-06 13:03 38.77498 -9.13298 364 ft 3 kts 165°
2026-05-06 13:03 38.77501 -9.13299 364 ft 0 kts 168°
2026-05-06 13:06 38.77499 -9.13298 364 ft 1 kts 168°
2026-05-06 13:06 38.77488 -9.13296 364 ft 4 kts 168°
2026-05-06 13:06 38.77454 -9.13287 362 ft 6 kts 168°
2026-05-06 13:07 38.77409 -9.13275 382 ft 8 kts 168°
2026-05-06 13:07 38.77353 -9.13267 361 ft 7 kts 189°
2026-05-06 13:07 38.77328 -9.13319 362 ft 8 kts 252°
2026-05-06 13:07 38.77293 -9.13371 363 ft 8 kts 202°
2026-05-06 13:08 38.77243 -9.13362 359 ft 7 kts 162°
2026-05-06 13:08 38.77190 -9.13340 361 ft 9 kts 162°
2026-05-06 13:08 38.77119 -9.13320 364 ft 11 kts 168°
2026-05-06 13:08 38.77037 -9.13300 361 ft 13 kts 169°
2026-05-06 13:09 38.76948 -9.13276 361 ft 13 kts 168°
2026-05-06 13:09 38.76860 -9.13253 360 ft 13 kts 168°
2026-05-06 13:09 38.76796 -9.13238 359 ft 7 kts 178°
2026-05-06 13:09 38.76767 -9.13272 363 ft 6 kts 243°
2026-05-06 13:10 38.76751 -9.13342 361 ft 10 kts 255°
2026-05-06 13:10 38.76707 -9.13420 362 ft 12 kts 215°
2026-05-06 13:10 38.76656 -9.13489 363 ft 11 kts 244°
2026-05-06 13:10 38.76639 -9.13586 358 ft 11 kts 259°
2026-05-06 13:11 38.76623 -9.13690 360 ft 12 kts 258°
2026-05-06 13:11 38.76605 -9.13801 355 ft 13 kts 258°
2026-05-06 13:11 38.76585 -9.13919 363 ft 14 kts 258°
2026-05-06 13:11 38.76556 -9.14021 365 ft 12 kts 233°
2026-05-06 13:12 38.76505 -9.14101 363 ft 11 kts 241°
2026-05-06 13:12 38.76504 -9.14200 362 ft 11 kts 287°
2026-05-06 13:12 38.76532 -9.14285 364 ft 1 kts 293°
2026-05-06 13:14 38.76533 -9.14289 355 ft 1 kts 293°
2026-05-06 13:14 38.76539 -9.14307 363 ft 3 kts 293°
2026-05-06 13:14 38.76553 -9.14347 359 ft 6 kts 293°
2026-05-06 13:14 38.76577 -9.14393 364 ft 6 kts 321°
2026-05-06 13:15 38.76619 -9.14400 361 ft 6 kts 11°
2026-05-06 13:15 38.76667 -9.14376 360 ft 11 kts 22°
2026-05-06 13:15 38.76889 -9.14257 360 ft 64 kts 22°
2026-05-06 13:15 38.77474 -9.13945 366 ft 117 kts 22°
2026-05-06 13:16 38.78366 -9.13467 365 ft 159 kts 23°
2026-05-06 13:16 38.79451 -9.12880 745 ft 170 kts 19°
2026-05-06 13:16 38.80467 -9.12116 1457 ft 169 kts 28°
2026-05-06 13:16 38.81445 -9.11233 2047 ft 179 kts 29°
2026-05-06 13:17 38.82546 -9.10310 2317 ft 203 kts 27°
2026-05-06 13:17 38.83825 -9.09339 2579 ft 228 kts 25°
2026-05-06 13:17 38.85274 -9.08385 3126 ft 240 kts 25°
2026-05-06 13:17 38.86778 -9.07395 3737 ft 247 kts 25°
2026-05-06 13:18 38.88324 -9.06346 4370 ft 254 kts 28°
2026-05-06 13:18 38.89689 -9.04901 5080 ft 259 kts 50°
2026-05-06 13:18 38.90609 -9.02903 5838 ft 262 kts 62°
2026-05-06 13:18 38.91407 -9.00769 6507 ft 268 kts 63°
2026-05-06 13:19 38.92182 -8.98577 7179 ft 271 kts 64°
2026-05-06 13:19 38.92964 -8.96345 7830 ft 276 kts 64°
2026-05-06 13:19 38.93762 -8.94072 8498 ft 280 kts 64°
2026-05-06 13:19 38.94570 -8.91775 9151 ft 285 kts 64°
2026-05-06 13:20 38.95396 -8.89434 9789 ft 289 kts 65°
2026-05-06 13:20 38.96223 -8.87088 10308 ft 297 kts 65°
2026-05-06 13:20 38.97099 -8.84603 10580 ft 313 kts 65°
2026-05-06 13:20 38.98019 -8.81993 10854 ft 328 kts 65°
2026-05-06 13:21 38.98981 -8.79262 11142 ft 342 kts 65°
2026-05-06 13:21 38.99974 -8.76436 11538 ft 350 kts 65°
2026-05-06 13:21 39.00982 -8.73566 12065 ft 355 kts 65°
2026-05-06 13:21 39.02007 -8.70646 12518 ft 361 kts 65°
2026-05-06 13:22 39.03045 -8.67689 13111 ft 364 kts 65°
2026-05-06 13:22 39.04088 -8.64710 13679 ft 367 kts 65°
2026-05-06 13:22 39.05143 -8.61696 14164 ft 371 kts 65°
2026-05-06 13:22 39.06205 -8.58658 14665 ft 374 kts 65°
2026-05-06 13:23 39.07275 -8.55594 15139 ft 377 kts 65°
2026-05-06 13:23 39.08355 -8.52499 15648 ft 380 kts 65°
2026-05-06 13:23 39.09444 -8.49374 16139 ft 384 kts 65°
2026-05-06 13:23 39.10539 -8.46227 16638 ft 387 kts 65°
2026-05-06 13:24 39.11644 -8.43049 17156 ft 390 kts 65°
2026-05-06 13:24 39.12758 -8.39845 17665 ft 394 kts 65°
2026-05-06 13:24 39.13880 -8.36609 18177 ft 398 kts 65°
2026-05-06 13:24 39.15013 -8.33341 18625 ft 401 kts 65°
2026-05-06 13:25 39.16156 -8.30039 19092 ft 405 kts 65°
2026-05-06 13:25 39.17289 -8.26761 19575 ft 407 kts 65°
2026-05-06 13:25 39.18445 -8.23414 20069 ft 410 kts 65°
2026-05-06 13:25 39.19607 -8.20048 20528 ft 413 kts 65°
2026-05-06 13:26 39.20776 -8.16656 21014 ft 415 kts 66°
2026-05-06 13:26 39.21951 -8.13242 21493 ft 418 kts 66°
2026-05-06 13:26 39.23136 -8.09794 21962 ft 421 kts 66°
2026-05-06 13:26 39.24329 -8.06318 22414 ft 424 kts 66°
2026-05-06 13:27 39.25527 -8.02827 22880 ft 426 kts 66°
2026-05-06 13:27 39.26714 -7.99361 23344 ft 429 kts 66°
2026-05-06 13:27 39.27922 -7.95830 23737 ft 432 kts 66°
2026-05-06 13:27 39.29140 -7.92267 24109 ft 435 kts 66°
2026-05-06 13:28 39.30367 -7.88671 24462 ft 437 kts 66°
2026-05-06 13:28 39.31596 -7.85066 24831 ft 440 kts 66°
2026-05-06 13:28 39.32832 -7.81434 25197 ft 442 kts 66°
2026-05-06 13:28 39.34071 -7.77790 25560 ft 444 kts 66°
2026-05-06 13:29 39.35315 -7.74126 25910 ft 447 kts 66°
2026-05-06 13:29 39.36554 -7.70474 26260 ft 449 kts 66°
2026-05-06 13:29 39.37808 -7.66772 26612 ft 451 kts 66°
2026-05-06 13:29 39.39079 -7.63053 26962 ft 454 kts 65°
2026-05-06 13:30 39.40448 -7.59360 27295 ft 456 kts 63°
2026-05-06 13:30 39.41880 -7.55691 27597 ft 459 kts 63°
2026-05-06 13:30 39.43345 -7.51997 27925 ft 461 kts 62°
2026-05-06 13:30 39.44811 -7.48290 28269 ft 463 kts 63°
2026-05-06 13:31 39.46278 -7.44549 28595 ft 466 kts 63°
2026-05-06 13:31 39.47735 -7.40793 28924 ft 468 kts 63°
2026-05-06 13:31 39.49173 -7.37058 29237 ft 470 kts 63°
2026-05-06 13:31 39.50627 -7.33264 29562 ft 472 kts 63°
2026-05-06 13:32 39.52089 -7.29436 29880 ft 475 kts 63°
2026-05-06 13:32 39.53553 -7.25596 30159 ft 477 kts 63°
2026-05-06 13:32 39.55026 -7.21729 30411 ft 479 kts 63°
2026-05-06 13:32 39.56508 -7.17834 30610 ft 483 kts 63°
2026-05-06 13:33 39.57997 -7.13916 30853 ft 486 kts 63°
2026-05-06 13:33 39.59489 -7.09987 31150 ft 487 kts 63°
2026-05-06 13:33 39.60987 -7.06035 31449 ft 488 kts 63°
2026-05-06 13:33 39.62485 -7.02079 31705 ft 490 kts 63°
2026-05-06 13:34 39.63989 -6.98103 32023 ft 491 kts 63°
2026-05-06 13:34 39.65490 -6.94129 32368 ft 490 kts 63°
2026-05-06 13:34 39.66990 -6.90153 32712 ft 490 kts 63°
2026-05-06 13:34 39.68488 -6.86176 33038 ft 490 kts 63°
2026-05-06 13:35 39.69986 -6.82196 33346 ft 490 kts 63°
2026-05-06 13:35 39.71482 -6.78212 33634 ft 491 kts 63°
2026-05-06 13:35 39.72958 -6.74280 33948 ft 491 kts 63°
2026-05-06 13:35 39.74453 -6.70288 34222 ft 491 kts 63°
2026-05-06 13:36 39.75949 -6.66289 34480 ft 491 kts 63°
2026-05-06 13:36 39.77437 -6.62308 34733 ft 491 kts 63°
2026-05-06 13:36 39.78929 -6.58311 34976 ft 491 kts 63°
2026-05-06 13:36 39.80418 -6.54315 35218 ft 491 kts 63°
2026-05-06 13:37 39.81908 -6.50311 35455 ft 492 kts 63°
2026-05-06 13:37 39.83403 -6.46289 35690 ft 492 kts 63°
2026-05-06 13:37 39.84893 -6.42275 35886 ft 493 kts 63°
2026-05-06 13:37 39.86384 -6.38252 36129 ft 493 kts 63°
2026-05-06 13:38 39.87820 -6.34199 36393 ft 493 kts 65°
2026-05-06 13:38 39.89189 -6.30095 36624 ft 494 kts 66°
2026-05-06 13:38 39.90512 -6.26026 36829 ft 494 kts 66°
2026-05-06 13:38 39.91846 -6.21901 37052 ft 495 kts 66°
2026-05-06 13:39 39.93190 -6.17765 37259 ft 495 kts 66°
2026-05-06 13:39 39.94539 -6.13641 37461 ft 496 kts 66°
2026-05-06 13:39 39.95898 -6.09509 37673 ft 496 kts 66°
2026-05-06 13:39 39.97263 -6.05370 37846 ft 497 kts 66°
2026-05-06 13:40 39.98631 -6.01226 38031 ft 498 kts 66°
2026-05-06 13:40 40.00000 -5.97079 38228 ft 498 kts 66°
2026-05-06 13:40 40.01368 -5.92925 38446 ft 498 kts 66°
2026-05-06 13:40 40.02734 -5.88771 38625 ft 498 kts 66°
2026-05-06 13:41 40.04097 -5.84618 38783 ft 498 kts 66°
2026-05-06 13:41 40.05460 -5.80459 38938 ft 498 kts 66°
2026-05-06 13:41 40.06822 -5.76296 39112 ft 498 kts 66°
2026-05-06 13:41 40.08181 -5.72136 39263 ft 498 kts 66°
2026-05-06 13:42 40.09540 -5.67968 39401 ft 498 kts 66°
2026-05-06 13:42 40.10878 -5.63857 39529 ft 498 kts 66°
2026-05-06 13:42 40.12234 -5.59689 39701 ft 498 kts 66°
2026-05-06 13:42 40.13587 -5.55521 39883 ft 497 kts 66°
2026-05-06 13:43 40.14939 -5.51352 39927 ft 499 kts 66°
2026-05-06 13:43 40.17656 -5.42951 39950 ft 501 kts 66°
2026-05-06 13:44 40.20361 -5.34562 39931 ft 500 kts 66°
2026-05-06 13:44 40.23057 -5.26179 39934 ft 500 kts 66°
2026-05-06 13:45 40.25733 -5.17834 39936 ft 500 kts 66°
2026-05-06 13:45 40.29765 -5.05206 39957 ft 501 kts 66°
2026-05-06 13:46 40.32444 -4.96780 39949 ft 501 kts 66°
2026-05-06 13:46 40.35123 -4.88332 39952 ft 501 kts 67°
2026-05-06 13:47 40.37797 -4.79870 39973 ft 502 kts 67°
2026-05-06 13:47 40.40463 -4.71413 39955 ft 501 kts 67°
2026-05-06 13:48 40.43106 -4.63003 39960 ft 501 kts 67°
2026-05-06 13:48 40.45752 -4.54553 39970 ft 501 kts 67°
2026-05-06 13:49 40.48393 -4.46090 39956 ft 501 kts 67°
2026-05-06 13:49 40.51032 -4.37611 39961 ft 501 kts 67°
2026-05-06 13:50 40.53665 -4.29122 39963 ft 501 kts 67°
2026-05-06 13:50 40.56292 -4.20627 39966 ft 501 kts 67°
2026-05-06 13:51 40.58898 -4.12175 39975 ft 501 kts 67°
2026-05-06 13:51 40.61511 -4.03671 39977 ft 501 kts 67°
2026-05-06 13:52 40.64121 -3.95153 39987 ft 502 kts 68°
2026-05-06 13:52 40.66725 -3.86624 39993 ft 502 kts 68°
2026-05-06 13:53 40.68882 -3.79539 39988 ft 502 kts 68°
2026-05-06 13:53 40.71479 -3.70984 39957 ft 502 kts 68°
2026-05-06 13:54 40.74067 -3.62433 39953 ft 502 kts 68°
2026-05-06 13:54 40.76651 -3.53865 39956 ft 502 kts 68°
2026-05-06 13:55 40.79228 -3.45294 39945 ft 503 kts 68°
2026-05-06 13:55 40.81802 -3.36706 39951 ft 503 kts 68°
2026-05-06 13:56 40.84356 -3.28156 39947 ft 504 kts 68°
2026-05-06 13:56 40.86450 -3.19321 39954 ft 504 kts 75°
2026-05-06 13:57 40.88253 -3.10371 39951 ft 503 kts 76°
2026-05-06 13:57 40.89998 -3.01417 39957 ft 503 kts 76°
2026-05-06 13:58 40.91741 -2.92442 39951 ft 504 kts 76°
2026-05-06 13:58 40.93485 -2.83470 39947 ft 504 kts 76°
2026-05-06 13:59 40.95228 -2.74488 39945 ft 504 kts 76°
2026-05-06 13:59 40.96962 -2.65513 39949 ft 504 kts 76°
2026-05-06 14:00 40.98685 -2.56566 39948 ft 505 kts 76°
2026-05-06 14:00 41.00409 -2.47551 39955 ft 505 kts 76°
2026-05-06 14:01 41.02119 -2.38537 39960 ft 505 kts 76°
2026-05-06 14:01 41.03831 -2.29514 39953 ft 505 kts 76°
2026-05-06 14:02 41.05536 -2.20484 39959 ft 505 kts 76°
2026-05-06 14:02 41.07226 -2.11492 39961 ft 506 kts 76°
2026-05-06 14:03 41.08925 -2.02438 39962 ft 506 kts 77°
2026-05-06 14:03 41.10608 -1.93379 39964 ft 505 kts 77°
2026-05-06 14:04 41.12280 -1.84317 39964 ft 506 kts 77°
2026-05-06 14:04 41.13939 -1.75296 39967 ft 506 kts 77°
2026-05-06 14:05 41.15603 -1.66218 39961 ft 506 kts 77°
2026-05-06 14:05 41.17258 -1.57144 39964 ft 506 kts 77°
2026-05-06 14:06 41.18907 -1.48059 39965 ft 506 kts 77°
2026-05-06 14:06 41.20544 -1.39010 39966 ft 507 kts 77°
2026-05-06 14:07 41.22183 -1.29896 39962 ft 507 kts 77°
2026-05-06 14:07 41.23814 -1.20783 39970 ft 507 kts 77°
2026-05-06 14:08 41.25442 -1.11649 39977 ft 507 kts 77°
2026-05-06 14:08 41.27063 -1.02505 39975 ft 508 kts 77°
2026-05-06 14:09 41.28669 -0.93401 39966 ft 509 kts 77°
2026-05-06 14:09 41.30278 -0.84235 39966 ft 509 kts 77°
2026-05-06 14:10 41.31877 -0.75080 39958 ft 509 kts 78°
2026-05-06 14:10 41.33474 -0.65892 39963 ft 510 kts 78°
2026-05-06 14:11 41.35001 -0.56673 39962 ft 509 kts 83°
2026-05-06 14:11 41.35370 -0.47315 39959 ft 505 kts 91°
2026-05-06 14:12 41.35338 -0.37969 39950 ft 505 kts 92°
2026-05-06 14:12 41.35231 -0.28688 39951 ft 505 kts 93°
2026-05-06 14:13 41.35128 -0.19338 39945 ft 505 kts 92°
2026-05-06 14:13 41.35033 -0.10001 39954 ft 505 kts 92°
2026-05-06 14:14 41.34937 -0.00655 39946 ft 505 kts 92°
2026-05-06 14:14 41.34834 0.08696 39943 ft 505 kts 93°
2026-05-06 14:15 41.34721 0.18050 39939 ft 507 kts 93°
2026-05-06 14:15 41.34604 0.27455 39940 ft 508 kts 93°
2026-05-06 14:16 41.34477 0.36867 39937 ft 508 kts 93°
2026-05-06 14:16 41.34339 0.46279 39928 ft 509 kts 93°
2026-05-06 14:17 41.34195 0.55648 39930 ft 509 kts 93°
2026-05-06 14:17 41.34041 0.65063 39923 ft 509 kts 94°
2026-05-06 14:18 41.33883 0.74469 39922 ft 509 kts 94°
2026-05-06 14:18 41.33718 0.83882 39915 ft 509 kts 94°
2026-05-06 14:19 41.33544 0.93310 39914 ft 509 kts 94°
2026-05-06 14:19 41.33361 1.02745 39927 ft 509 kts 94°
2026-05-06 14:20 41.33171 1.12164 39932 ft 509 kts 94°
2026-05-06 14:20 41.32971 1.21583 39933 ft 509 kts 94°
2026-05-06 14:21 41.32769 1.30938 39931 ft 508 kts 94°
2026-05-06 14:21 41.32558 1.40337 39932 ft 508 kts 94°
2026-05-06 14:22 41.32339 1.49732 39929 ft 508 kts 94°
2026-05-06 14:22 41.32112 1.59129 39933 ft 508 kts 95°
2026-05-06 14:23 41.31877 1.68522 39936 ft 507 kts 95°
2026-05-06 14:23 41.31639 1.77902 39936 ft 507 kts 95°
2026-05-06 14:24 41.31385 1.87295 39944 ft 507 kts 95°
2026-05-06 14:24 41.31125 1.96620 39938 ft 508 kts 95°
2026-05-06 14:25 41.30858 2.06003 39938 ft 508 kts 95°
2026-05-06 14:25 41.29964 2.15254 39938 ft 503 kts 105°
2026-05-06 14:26 41.28535 2.24351 39940 ft 502 kts 106°
2026-05-06 14:26 41.27014 2.33411 39939 ft 502 kts 107°
2026-05-06 14:27 41.25487 2.42468 39943 ft 502 kts 107°
2026-05-06 14:27 41.23976 2.51471 39948 ft 502 kts 107°
2026-05-06 14:28 41.22454 2.60531 39946 ft 502 kts 107°
2026-05-06 14:28 41.20927 2.69583 39938 ft 502 kts 107°
2026-05-06 14:29 41.19389 2.78648 39944 ft 503 kts 107°
2026-05-06 14:29 41.17844 2.87707 39944 ft 503 kts 107°
2026-05-06 14:30 41.16292 2.96756 39946 ft 503 kts 107°
2026-05-06 14:30 41.14743 3.05747 39942 ft 503 kts 107°
2026-05-06 14:31 41.13178 3.14788 39947 ft 502 kts 107°
2026-05-06 14:31 41.11607 3.23817 39949 ft 502 kts 107°
2026-05-06 14:32 41.10030 3.32835 39949 ft 502 kts 107°
2026-05-06 14:32 41.08447 3.41837 39950 ft 502 kts 108°
2026-05-06 14:33 41.06854 3.50851 39952 ft 502 kts 108°
2026-05-06 14:33 41.05259 3.59861 39952 ft 502 kts 108°
2026-05-06 14:34 41.03651 3.68872 39952 ft 502 kts 108°
2026-05-06 14:34 41.02038 3.77866 39952 ft 502 kts 108°
2026-05-06 14:35 41.00430 3.86811 39951 ft 502 kts 108°
2026-05-06 14:35 40.98798 3.95807 39952 ft 502 kts 108°
2026-05-06 14:36 40.97159 4.04795 39951 ft 502 kts 108°
2026-05-06 14:36 40.95514 4.13785 39954 ft 502 kts 108°
2026-05-06 14:37 40.93863 4.22765 39958 ft 502 kts 108°
2026-05-06 14:37 40.92205 4.31744 39954 ft 503 kts 108°
2026-05-06 14:38 40.90540 4.40717 39946 ft 503 kts 108°
2026-05-06 14:38 40.88878 4.49629 39953 ft 503 kts 108°
2026-05-06 14:39 40.87203 4.58600 39946 ft 502 kts 109°
2026-05-06 14:39 40.85682 4.67634 39962 ft 506 kts 102°
2026-05-06 14:40 40.84732 4.76860 39956 ft 507 kts 101°
2026-05-06 14:40 40.83880 4.86100 39958 ft 507 kts 101°
2026-05-06 14:41 40.83178 4.93783 39956 ft 507 kts 101°
2026-05-06 14:41 40.82316 5.03027 39952 ft 507 kts 101°
2026-05-06 14:42 40.81297 5.13757 39958 ft 507 kts 101°
2026-05-06 14:42 40.80554 5.21501 39959 ft 507 kts 101°
2026-05-06 14:43 40.79666 5.30674 39949 ft 507 kts 101°
2026-05-06 14:43 40.78766 5.39906 39950 ft 506 kts 101°
2026-05-06 14:44 40.77860 5.49121 39947 ft 506 kts 101°
2026-05-06 14:45 40.76490 5.62911 39951 ft 505 kts 102°
2026-05-06 14:45 40.75567 5.72104 39936 ft 505 kts 102°
2026-05-06 14:46 40.74638 5.81292 39952 ft 504 kts 102°
2026-05-06 14:46 40.73710 5.90383 39953 ft 503 kts 102°
2026-05-06 14:47 40.72772 5.99538 39953 ft 503 kts 102°
2026-05-06 14:47 40.71822 6.08686 39949 ft 503 kts 102°
2026-05-06 14:48 40.70864 6.17816 39953 ft 503 kts 102°
2026-05-06 14:48 40.69900 6.26942 39954 ft 502 kts 102°
2026-05-06 14:49 40.68937 6.35996 39950 ft 502 kts 102°
2026-05-06 14:49 40.67954 6.45160 39952 ft 502 kts 102°
2026-05-06 14:50 40.66978 6.54205 39950 ft 501 kts 102°
2026-05-06 14:50 40.65989 6.63305 39952 ft 501 kts 102°
2026-05-06 14:51 40.64993 6.72392 39950 ft 501 kts 102°
2026-05-06 14:51 40.63990 6.81486 39950 ft 501 kts 102°
2026-05-06 14:52 40.62988 6.90499 39945 ft 500 kts 102°
2026-05-06 14:52 40.61975 6.99560 39950 ft 500 kts 102°
2026-05-06 14:53 40.60953 7.08617 39950 ft 500 kts 103°
2026-05-06 14:53 40.59925 7.17667 39950 ft 500 kts 103°
2026-05-06 14:54 40.58889 7.26721 39950 ft 500 kts 103°
2026-05-06 14:54 40.57847 7.35760 39950 ft 500 kts 103°
2026-05-06 14:55 40.56815 7.44801 39945 ft 501 kts 101°
2026-05-06 14:55 40.56658 7.49398 39951 ft 505 kts 90°
2026-05-06 14:55 40.56897 7.54014 39949 ft 506 kts 88°
2026-05-06 14:56 40.57625 7.63191 39946 ft 508 kts 86°
2026-05-06 14:56 40.58453 7.72407 39950 ft 507 kts 86°
2026-05-06 14:57 40.59266 7.81625 39950 ft 507 kts 86°
2026-05-06 14:57 40.60050 7.90838 39954 ft 507 kts 86°
2026-05-06 14:58 40.60820 8.00066 39952 ft 507 kts 86°
2026-05-06 14:58 40.61582 8.09309 39963 ft 508 kts 86°
2026-05-06 14:59 40.62343 8.18549 39975 ft 508 kts 86°
2026-05-06 14:59 40.63922 8.27616 39969 ft 511 kts 71°
2026-05-06 15:00 40.66528 8.36346 39950 ft 512 kts 68°
2026-05-06 15:00 40.69285 8.44993 39950 ft 512 kts 68°
2026-05-06 15:01 40.72040 8.53640 39949 ft 512 kts 68°
2026-05-06 15:01 40.74748 8.62243 39947 ft 511 kts 69°
2026-05-06 15:02 40.77456 8.70913 39948 ft 511 kts 69°
2026-05-06 15:02 40.80157 8.79599 39964 ft 511 kts 69°
2026-05-06 15:03 40.82850 8.88283 39947 ft 511 kts 69°
2026-05-06 15:03 40.85546 8.97003 39942 ft 512 kts 69°
2026-05-06 15:04 40.88228 9.05705 39947 ft 512 kts 69°
2026-05-06 15:04 40.90906 9.14421 39942 ft 512 kts 69°
2026-05-06 15:05 40.93575 9.23138 39946 ft 511 kts 69°
2026-05-06 15:05 40.96238 9.31867 39948 ft 511 kts 69°
2026-05-06 15:06 40.98896 9.40607 39940 ft 512 kts 69°
2026-05-06 15:06 41.01550 9.49360 39932 ft 512 kts 69°
2026-05-06 15:07 41.04194 9.58107 39941 ft 511 kts 69°
2026-05-06 15:07 41.06815 9.66810 39945 ft 512 kts 69°
2026-05-06 15:08 41.09445 9.75570 39736 ft 510 kts 70°
2026-05-06 15:08 41.10756 9.79944 39170 ft 512 kts 70°
2026-05-06 15:08 41.12064 9.84352 38525 ft 515 kts 70°
2026-05-06 15:08 41.13371 9.88792 37772 ft 518 kts 71°
2026-05-06 15:09 41.14677 9.93244 37183 ft 518 kts 71°
2026-05-06 15:09 41.15982 9.97699 36593 ft 518 kts 71°
2026-05-06 15:09 41.17286 10.02153 35981 ft 519 kts 72°
2026-05-06 15:09 41.18611 10.06640 35343 ft 521 kts 72°
2026-05-06 15:10 41.19943 10.11134 34662 ft 524 kts 72°
2026-05-06 15:10 41.21284 10.15654 33946 ft 528 kts 73°
2026-05-06 15:10 41.22636 10.20206 33157 ft 531 kts 73°
2026-05-06 15:10 41.23987 10.24769 32392 ft 532 kts 72°
2026-05-06 15:11 41.25339 10.29354 31613 ft 534 kts 72°
2026-05-06 15:11 41.26674 10.33885 31058 ft 531 kts 72°
2026-05-06 15:11 41.28030 10.38495 30510 ft 527 kts 72°
2026-05-06 15:11 41.29343 10.42967 29958 ft 524 kts 72°
2026-05-06 15:12 41.30663 10.47472 29365 ft 521 kts 72°
2026-05-06 15:12 41.31974 10.51954 28799 ft 516 kts 72°
2026-05-06 15:12 41.33270 10.56391 28260 ft 512 kts 72°
2026-05-06 15:12 41.34553 10.60795 27692 ft 507 kts 71°
2026-05-06 15:13 41.35821 10.65154 27167 ft 502 kts 71°
2026-05-06 15:13 41.37077 10.69482 26622 ft 498 kts 71°
2026-05-06 15:13 41.38304 10.73714 26095 ft 494 kts 71°
2026-05-06 15:13 41.39534 10.77965 25557 ft 490 kts 71°
2026-05-06 15:14 41.40754 10.82187 25015 ft 486 kts 71°
2026-05-06 15:14 41.41963 10.86378 24480 ft 483 kts 71°
2026-05-06 15:14 41.43164 10.90550 23939 ft 479 kts 71°
2026-05-06 15:14 41.44351 10.94680 23404 ft 475 kts 71°
2026-05-06 15:15 41.45524 10.98766 22807 ft 470 kts 71°
2026-05-06 15:15 41.46686 11.02821 22276 ft 465 kts 71°
2026-05-06 15:15 41.47833 11.06827 21751 ft 459 kts 71°
2026-05-06 15:15 41.48959 11.10777 21254 ft 454 kts 72°
2026-05-06 15:16 41.50059 11.14696 20738 ft 448 kts 72°
2026-05-06 15:16 41.51145 11.18573 20245 ft 443 kts 72°
2026-05-06 15:16 41.52218 11.22404 19744 ft 439 kts 72°
2026-05-06 15:16 41.53285 11.26214 19250 ft 435 kts 72°
2026-05-06 15:17 41.54324 11.29927 18758 ft 431 kts 72°
2026-05-06 15:17 41.55364 11.33648 18484 ft 421 kts 72°
2026-05-06 15:17 41.56372 11.37255 18351 ft 407 kts 72°
2026-05-06 15:17 41.57347 11.40746 18191 ft 395 kts 72°
2026-05-06 15:18 41.58295 11.44136 17990 ft 385 kts 72°
2026-05-06 15:18 41.59320 11.47405 17694 ft 380 kts 63°
2026-05-06 15:18 41.60950 11.50166 17333 ft 379 kts 42°
2026-05-06 15:18 41.63047 11.52283 16943 ft 377 kts 35°
2026-05-06 15:19 41.65260 11.54173 16360 ft 380 kts 32°
2026-05-06 15:19 41.67512 11.56023 15880 ft 379 kts 31°
2026-05-06 15:19 41.69762 11.57853 15495 ft 376 kts 31°
2026-05-06 15:19 41.71995 11.59660 15103 ft 373 kts 31°
2026-05-06 15:20 41.74208 11.61446 14726 ft 370 kts 31°
2026-05-06 15:20 41.76409 11.63222 14355 ft 367 kts 31°
2026-05-06 15:20 41.78589 11.64979 13993 ft 364 kts 31°
2026-05-06 15:20 41.80753 11.66724 13547 ft 363 kts 31°
2026-05-06 15:21 41.82885 11.68444 13071 ft 362 kts 30°
2026-05-06 15:21 41.85042 11.70185 12620 ft 361 kts 30°
2026-05-06 15:21 41.87189 11.71919 12202 ft 358 kts 30°
2026-05-06 15:21 41.89318 11.73641 11811 ft 355 kts 30°
2026-05-06 15:22 41.91407 11.75331 11627 ft 346 kts 30°
2026-05-06 15:22 41.93445 11.76981 11463 ft 337 kts 30°
2026-05-06 15:22 41.95426 11.78587 11295 ft 328 kts 30°
2026-05-06 15:22 41.97353 11.80149 11137 ft 318 kts 30°
2026-05-06 15:23 41.99200 11.81649 10863 ft 302 kts 30°
2026-05-06 15:23 42.00990 11.83103 10126 ft 303 kts 30°
2026-05-06 15:23 42.02818 11.84586 9267 ft 307 kts 30°
2026-05-06 15:23 42.04649 11.86074 8514 ft 306 kts 30°
2026-05-06 15:24 42.06472 11.87557 7973 ft 307 kts 30°
2026-05-06 15:24 42.08126 11.89359 7590 ft 305 kts 52°
2026-05-06 15:24 42.09061 11.91815 7044 ft 297 kts 73°
2026-05-06 15:24 42.09675 11.94455 6390 ft 294 kts 76°
2026-05-06 15:25 42.10258 11.97083 5731 ft 291 kts 75°
2026-05-06 15:25 42.10846 11.99681 5105 ft 287 kts 75°
2026-05-06 15:25 42.11354 12.02215 4738 ft 271 kts 84°
2026-05-06 15:25 42.11147 12.04603 4488 ft 249 kts 119°
2026-05-06 15:26 42.10206 12.06459 4298 ft 236 kts 136°
2026-05-06 15:26 42.09121 12.08059 4157 ft 227 kts 136°
2026-05-06 15:26 42.08055 12.09582 4005 ft 220 kts 137°
2026-05-06 15:26 42.07017 12.11049 3968 ft 213 kts 141°
2026-05-06 15:27 42.05807 12.12184 3978 ft 211 kts 156°
2026-05-06 15:27 42.04469 12.12949 3955 ft 206 kts 163°
2026-05-06 15:27 42.03128 12.13567 3926 ft 206 kts 165°
2026-05-06 15:27 42.01808 12.14124 3920 ft 191 kts 165°
2026-05-06 15:28 42.00611 12.14648 3941 ft 173 kts 167°
2026-05-06 15:28 41.99473 12.15122 3719 ft 169 kts 166°
2026-05-06 15:28 41.98349 12.15585 3461 ft 168 kts 166°
2026-05-06 15:28 41.97244 12.16060 3224 ft 167 kts 165°
2026-05-06 15:29 41.96124 12.16541 3014 ft 171 kts 164°
2026-05-06 15:29 41.94953 12.17026 2896 ft 182 kts 167°
2026-05-06 15:29 41.94135 12.17351 2673 ft 190 kts 165°
2026-05-06 15:29 41.92829 12.17863 2467 ft 201 kts 165°
2026-05-06 15:30 41.91423 12.18500 2043 ft 223 kts 163°
2026-05-06 15:30 41.89963 12.19140 1756 ft 217 kts 166°
2026-05-06 15:30 41.88572 12.19681 1520 ft 203 kts 165°
2026-05-06 15:30 41.87230 12.20169 1224 ft 195 kts 164°
2026-05-06 15:31 41.86006 12.20751 1005 ft 177 kts 161°
2026-05-06 15:31 41.84891 12.21243 744 ft 160 kts 163°
2026-05-06 15:31 41.83905 12.21650 521 ft 135 kts 161°
2026-05-06 15:32 41.82337 12.22307 228 ft 114 kts 160°
2026-05-06 15:32 41.81570 12.22630 62 ft 117 kts 161°
2026-05-06 15:32 41.80828 12.22939 26 ft 100 kts 162°
2026-05-06 15:32 41.80338 12.23146 25 ft 49 kts 162°
2026-05-06 15:33 41.80116 12.23238 24 ft 29 kts 162°
2026-05-06 15:33 41.79929 12.23317 25 ft 28 kts 162°
2026-05-06 15:33 41.79748 12.23395 19 ft 27 kts 162°
2026-05-06 15:33 41.79570 12.23485 17 ft 27 kts 151°
2026-05-06 15:34 41.79430 12.23645 19 ft 24 kts 132°
2026-05-06 15:34 41.79360 12.23750 19 ft 11 kts 132°
2026-05-06 15:34 41.79324 12.23809 19 ft 6 kts 122°
2026-05-06 15:34 41.79306 12.23860 19 ft 4 kts 115°
2026-05-06 15:35 41.79287 12.23899 19 ft 6 kts 130°
2026-05-06 15:35 41.79242 12.23933 19 ft 8 kts 162°
2026-05-06 15:35 41.79181 12.23957 19 ft 10 kts 163°
2026-05-06 15:35 41.79112 12.23984 19 ft 11 kts 163°
2026-05-06 15:36 41.79035 12.24017 19 ft 12 kts 162°
2026-05-06 15:36 41.78950 12.24053 19 ft 13 kts 162°
2026-05-06 15:36 41.78857 12.24092 19 ft 14 kts 162°
2026-05-06 15:36 41.78758 12.24133 19 ft 15 kts 162°
2026-05-06 15:37 41.78695 12.24167 19 ft 6 kts 138°
2026-05-06 15:37 41.78695 12.24219 19 ft 6 kts 76°
2026-05-06 15:37 41.78711 12.24292 19 ft 10 kts 71°
2026-05-06 15:37 41.78734 12.24387 19 ft 12 kts 72°
2026-05-06 15:38 41.78753 12.24449 21 ft 3 kts 50°
2026-05-06 15:38 41.78771 12.24454 19 ft 3 kts
2026-05-06 15:38 41.78795 12.24448 19 ft 5 kts 347°
2026-05-06 15:38 41.78823 12.24437 19 ft 3 kts 343°
2026-05-06 15:39 41.78824 12.24436 19 ft 0 kts 343°